[[{"header":{"parameterUnit":"m.s-1","parameterCategory":2,"la1":30.2991,"la2":30.254,"lo1":-89.0895,"lo2":-89.0444,"dy":0.0017,"dx":0.0017,"nx":28,"ny":28,"refTime":"2024-12-15T03:00:00:Z","depth":"0","parameterNumber":2,"parameterNumberName":"U-component_of_CURRENTS"},"data":[0,0,0,0,0,0,0,0,0,0,0,0,0,0,0,0,0,0,0,0,0,0,0,0,0,0,0,0,0,0,0,0,0,0,0,0,0,0,0,0,0,0,0,0,0,0,0,0,0,0,0,0,0,0,0,0,0,0,-0.2212,-0.2213,0,-0.2292,-0.2293,-0.2293,-0.2282,-0.2281,-0.228,-0.2279,-0.2265,-0.2265,-0.2266,0,0,0,0,0,0,0,0,0,0,0,0,0,-0.2087,-0.2089,-0.2212,-0.2213,-0.2214,-0.2292,-0.2293,-0.2294,-0.2283,-0.2281,-0.228,-0.2278,-0.2264,-0.2265,-0.2266,0,0,0,0,0,0,0,0,0,0,0,0,0,-0.215,-0.2089,-0.2212,-0.2219,-0.222,-0.2291,-0.2293,-0.2294,-0.2283,-0.2281,-0.2279,-0.2277,-0.2264,-0.2265,-0.2266,-0.2311,0,0,-0.227,-0.2271,0,0,0,0,0,0,0,0,-0.2147,-0.2155,-0.2216,-0.2218,-0.222,-0.2276,-0.2243,-0.2295,-0.2283,-0.2258,-0.2279,-0.2276,-0.2262,-0.2263,-0.2282,-0.231,-0.231,-0.227,-0.2271,-0.2271,-0.2272,0,0,0,0,0,0,0,-0.2142,-0.2151,-0.2242,-0.2218,-0.222,-0.223,-0.2237,-0.2254,-0.2267,-0.226,-0.226,-0.2271,-0.2262,-0.2281,-0.2282,-0.231,-0.227,-0.2271,-0.2272,-0.2272,-0.2336,-0.2337,0,0,0,0,0,0,-0.2135,-0.2148,-0.224,-0.2245,-0.2179,-0.2234,-0.2241,-0.2259,-0.2269,-0.227,-0.2272,-0.227,-0.228,-0.228,-0.2281,-0.2318,-0.2271,-0.2272,-0.2273,-0.2335,-0.2336,-0.2337,0,0,0,0,0,0,-0.2132,-0.2143,-0.2237,-0.2198,-0.2211,-0.2238,-0.2258,-0.2262,-0.2277,-0.2279,-0.2277,-0.2283,-0.2279,-0.2279,-0.2298,-0.2317,-0.2273,-0.2274,-0.2334,-0.2336,-0.2337,-0.2401,0,0,0,0,0,0,-0.2128,-0.2141,-0.2153,-0.2198,-0.2213,-0.2279,-0.226,-0.2265,-0.2288,-0.2285,-0.2289,-0.2286,-0.2277,-0.2296,-0.2299,-0.2318,-0.2275,-0.2333,-0.2335,-0.2336,-0.2397,-0.2404,-0.241,0,0,0,0,0,-0.2124,-0.2146,-0.2153,-0.2165,-0.2228,-0.228,-0.2289,-0.2301,-0.229,-0.2306,-0.2306,-0.2285,-0.2309,-0.2299,-0.2301,-0.2321,-0.2332,-0.2334,-0.2336,-0.2395,-0.2403,-0.241,0,0,0,0,0,0,-0.2103,-0.2149,-0.2157,-0.2194,-0.2234,-0.2278,-0.2294,-0.2307,-0.2325,-0.2317,-0.2309,-0.2307,-0.2326,-0.2319,-0.2308,-0.2343,-0.2313,-0.2316,-0.2357,-0.2364,-0.2371,-0.2356,-0.2276,0,0,0,0,0,-0.2105,-0.2127,-0.2178,-0.2206,-0.2225,-0.2261,-0.2284,-0.23,-0.2323,-0.2329,-0.2331,-0.2332,-0.2342,-0.2348,-0.2352,-0.2384,-0.2387,-0.2394,-0.2401,-0.2406,-0.2396,-0.2415,-0.2422,-0.2345,-0.2345,-0.2345,0,0,-0.2104,-0.2132,-0.2144,-0.2202,-0.2229,-0.2279,-0.2269,-0.231,-0.2347,-0.2325,-0.236,-0.2354,-0.2354,-0.2382,-0.2389,-0.2377,-0.244,-0.2409,-0.2414,-0.24,-0.2418,-0.2425,-0.2432,-0.2346,-0.2346,-0.2346,0,0,-0.2122,-0.2138,-0.2169,-0.221,-0.2261,-0.2288,-0.2301,-0.235,-0.2362,-0.2409,-0.2392,-0.2398,-0.2425,-0.2424,-0.2429,-0.2476,-0.2469,-0.2475,-0.2503,-0.2523,-0.2529,-0.2535,-0.2593,-0.2603,-0.2483,-0.2484,-0.2484,0,-0.2116,-0.2169,-0.2186,-0.2239,-0.2271,-0.2293,-0.2345,-0.2376,-0.2424,-0.2434,-0.2422,-0.2454,-0.2446,-0.2479,-0.2485,-0.249,-0.2509,-0.2477,-0.2532,-0.2537,-0.2541,-0.2599,-0.2609,-0.2487,-0.2487,-0.2486,-0.2486,0,-0.217,-0.2216,-0.2237,-0.2304,-0.2341,-0.2387,-0.2434,-0.246,-0.2472,-0.25,-0.2527,-0.2525,-0.2534,-0.254,-0.2526,-0.2554,-0.2564,-0.2535,-0.2513,-0.2553,-0.2612,-0.2622,-0.2492,-0.2491,-0.249,-0.2489,0,0,-0.2144,-0.2253,-0.226,-0.2301,-0.2379,-0.2413,-0.2469,-0.2522,-0.2554,-0.2582,-0.2623,-0.2626,-0.2606,-0.2608,-0.2593,-0.2606,-0.2664,-0.2582,-0.2581,-0.2642,-0.2741,-0.2679,-0.2683,-0.2644,-0.2645,-0.2646,-0.2787,0,-0.2177,-0.2275,-0.2322,-0.2406,-0.2455,-0.2493,-0.2545,-0.2592,-0.2621,-0.2666,-0.2663,-0.2691,-0.2642,-0.2645,-0.265,-0.265,-0.2684,-0.263,-0.2689,-0.2692,-0.2632,-0.2689,-0.2463,-0.2561,-0.2796,-0.2797,-0.2798,0,-0.2213,-0.2273,-0.2362,-0.2453,-0.2475,-0.2523,-0.2584,-0.2636,-0.2698,-0.2722,-0.2742,-0.2748,-0.2765,-0.2719,-0.2751,-0.2719,-0.2729,-0.2737,-0.2742,-0.2657,-0.2644,-0.2549,-0.2569,-0.2523,-0.2813,-0.2811,-0.281,0,-0.2175,-0.2293,-0.2354,-0.2392,-0.2503,-0.253,-0.257,-0.2639,-0.2687,-0.2746,-0.2793,-0.2811,-0.2835,-0.2832,-0.2835,-0.2796,-0.2893,-0.2844,-0.2816,-0.2815,-0.2617,-0.2594,-0.2587,-0.2881,-0.2881,-0.288,-0.288,0,-0.2187,-0.2236,-0.2338,-0.2377,-0.244,-0.2508,-0.2574,-0.2618,-0.2703,-0.2765,-0.28,-0.2858,-0.2858,-0.2911,-0.2891,-0.2892,-0.2941,-0.2831,-0.2838,-0.2638,-0.2617,-0.256,-0.2573,-0.2886,-0.2884,-0.2883,-0.2882,0,-0.2144,-0.2218,-0.229,-0.2395,-0.243,-0.246,-0.2576,-0.2626,-0.2703,-0.2789,-0.2811,-0.2911,-0.2967,-0.3,-0.3033,-0.2968,-0.2906,-0.2972,-0.2759,-0.2735,-0.2598,-0.2624,-0.2644,-0.2584,-0.2939,-0.2938,-0.2937,0,-0.2136,-0.2174,-0.2283,-0.2322,-0.2369,-0.2441,-0.2501,-0.2602,-0.2657,-0.2813,-0.2846,-0.2961,-0.2997,-0.3058,-0.297,-0.2956,-0.2934,-0.2758,-0.261,-0.257,-0.2605,-0.2621,-0.257,-0.2408,-0.2403,-0.2399,-0.2395,0,-0.2109,-0.2141,-0.2195,-0.2279,-0.2339,-0.2413,-0.2491,-0.2536,-0.2653,-0.2733,-0.283,-0.2878,-0.2939,-0.2799,-0.2792,-0.2747,-0.2626,-0.2672,-0.2661,-0.2213,-0.2197,-0.2147,-0.2392,-0.2359,-0.2363,-0.2365,-0.2367,-0.2369,-0.2062,-0.2084,-0.2149,-0.2213,-0.2287,-0.2325,-0.2325,-0.2407,-0.2464,-0.2473,-0.2654,-0.2617,-0.2573,-0.2497,-0.2487,-0.2304,-0.242,-0.2161,-0.2215,-0.2253,-0.2111,-0.2303,-0.2249,-0.2252,-0.2255,-0.2257,-0.2259,0,-0.1988,-0.2022,-0.2085,-0.2141,-0.2178,-0.224,-0.2279,-0.2226,-0.2206,-0.2216,-0.223,-0.2168,-0.2032,-0.2035,-0.189,-0.1813,-0.1772,-0.181,-0.1742,-0.1725,-0.1891,-0.1775,-0.1575,-0.1575,-0.1575,-0.1575,-0.1575,-0.1575,-0.1949,-0.1961,-0.1992,-0.2004,-0.2045,-0.1987,-0.1959,-0.1877,-0.1817,-0.1678,-0.1613,-0.1656,-0.171,-0.1743,-0.1613,-0.155,-0.1544,-0.1489,-0.1631,-0.169,-0.1725,-0.1759,-0.165,-0.1428,-0.1428,-0.1309,-0.1308,-0.1307]},{"header":{"parameterUnit":"m.s-1","parameterCategory":2,"la1":30.2991,"la2":30.254,"lo1":-89.0895,"lo2":-89.0444,"dy":0.0017,"dx":0.0017,"nx":28,"ny":28,"refTime":"2024-12-15T03:00:00:Z","depth":"0","parameterNumber":3,"parameterNumberName":"V-component_of_CURRENTS"},"data":[0,0,0,0,0,0,0,0,0,0,0,0,0,0,0,0,0,0,0,0,0,0,0,0,0,0,0,0,0,0,0,0,0,0,0,0,0,0,0,0,0,0,0,0,0,0,0,0,0,0,0,0,0,0,0,0,0,0,-0.0437,-0.0437,0,-0.0386,-0.0385,-0.0384,-0.0326,-0.0325,-0.0324,-0.0323,-0.0191,-0.0189,-0.0186,0,0,0,0,0,0,0,0,0,0,0,0,0,-0.0421,-0.0422,-0.0437,-0.0436,-0.0436,-0.0386,-0.0385,-0.0384,-0.0326,-0.0325,-0.0324,-0.0323,-0.0192,-0.0189,-0.0186,0,0,0,0,0,0,0,0,0,0,0,0,0,-0.0404,-0.0422,-0.0437,-0.0401,-0.0398,-0.0386,-0.0385,-0.0384,-0.0326,-0.0325,-0.0324,-0.0323,-0.0193,-0.0189,-0.0185,-0.0183,0,0,-0.0173,-0.0171,0,0,0,0,0,0,0,0,-0.0405,-0.0405,-0.0407,-0.0404,-0.04,-0.0362,-0.0331,-0.0313,-0.0326,-0.0352,-0.0323,-0.0322,-0.0242,-0.0234,-0.0227,-0.0177,-0.0171,-0.0172,-0.017,-0.0168,-0.0167,0,0,0,0,0,0,0,-0.0406,-0.0406,-0.0416,-0.0407,-0.0402,-0.0366,-0.0363,-0.0327,-0.0302,-0.035,-0.0346,-0.0342,-0.0239,-0.0231,-0.0223,-0.0169,-0.0172,-0.0169,-0.0166,-0.0164,-0.0076,-0.0076,0,0,0,0,0,0,-0.042,-0.0408,-0.0417,-0.0414,-0.0401,-0.0368,-0.0364,-0.0374,-0.0304,-0.0294,-0.0343,-0.034,-0.0239,-0.0228,-0.0218,-0.018,-0.0168,-0.0164,-0.0162,-0.0076,-0.0076,-0.0076,0,0,0,0,0,0,-0.042,-0.0422,-0.0419,-0.0409,-0.0407,-0.037,-0.0382,-0.0374,-0.0363,-0.03,-0.0287,-0.0339,-0.0238,-0.0224,-0.0187,-0.0175,-0.0162,-0.0158,-0.0076,-0.0076,-0.0076,-0.0122,0,0,0,0,0,0,-0.042,-0.0422,-0.0433,-0.0411,-0.0408,-0.0415,-0.0383,-0.0374,-0.0363,-0.0357,-0.0293,-0.0279,-0.0236,-0.0194,-0.0183,-0.0169,-0.0155,-0.0075,-0.0076,-0.0076,-0.0121,-0.0124,-0.0127,0,0,0,0,0,-0.042,-0.0447,-0.0434,-0.0435,-0.0425,-0.0416,-0.0411,-0.0379,-0.0364,-0.0364,-0.032,-0.0281,-0.0188,-0.0191,-0.0178,-0.0163,-0.0075,-0.0076,-0.0076,-0.0119,-0.0124,-0.0127,0,0,0,0,0,0,-0.0449,-0.0443,-0.0428,-0.0453,-0.0434,-0.0406,-0.0408,-0.0387,-0.0355,-0.0349,-0.0288,-0.0272,-0.0235,-0.0199,-0.0205,-0.0139,-0.0123,-0.0121,-0.016,-0.0164,-0.0167,-0.0159,-0.0152,0,0,0,0,0,-0.0461,-0.0477,-0.0457,-0.0475,-0.0471,-0.044,-0.0433,-0.0412,-0.0383,-0.0368,-0.0321,-0.0272,-0.0229,-0.0198,-0.016,-0.0127,-0.01,-0.0107,-0.0111,-0.0114,-0.0099,-0.0066,-0.0065,-0.0077,-0.0077,-0.0077,0,0,-0.0477,-0.0476,-0.0484,-0.0481,-0.0467,-0.0457,-0.0433,-0.043,-0.0408,-0.0358,-0.0321,-0.0287,-0.0226,-0.0188,-0.0166,-0.0152,-0.01,-0.0114,-0.0117,-0.01,-0.0066,-0.0065,-0.0063,-0.0078,-0.0078,-0.0078,0,0,-0.0511,-0.0517,-0.0534,-0.0519,-0.0503,-0.0481,-0.0483,-0.0455,-0.0431,-0.0401,-0.0355,-0.0314,-0.0255,-0.02,-0.0166,-0.0165,-0.0127,-0.0157,-0.0154,-0.0123,-0.0121,-0.0119,-0.0104,-0.0101,-0.0149,-0.015,-0.015,0,-0.0527,-0.0544,-0.0536,-0.0538,-0.0525,-0.0494,-0.0492,-0.0465,-0.0423,-0.0401,-0.0394,-0.0302,-0.0253,-0.0187,-0.0181,-0.0168,-0.0156,-0.0145,-0.0127,-0.0124,-0.0122,-0.0106,-0.0102,-0.0152,-0.0152,-0.0151,-0.0151,0,-0.0564,-0.0566,-0.0577,-0.0563,-0.055,-0.055,-0.0508,-0.0488,-0.046,-0.0425,-0.0373,-0.0317,-0.0256,-0.0237,-0.0202,-0.0154,-0.0156,-0.0145,-0.0118,-0.0123,-0.0107,-0.0101,-0.0155,-0.0154,-0.0154,-0.0153,0,0,-0.0617,-0.0606,-0.0605,-0.0598,-0.0563,-0.0561,-0.0523,-0.0483,-0.0465,-0.0414,-0.0386,-0.03,-0.0276,-0.0235,-0.0192,-0.0152,-0.0127,-0.014,-0.0138,-0.0128,-0.0075,0.0007,0.0021,-0.0122,-0.012,-0.012,-0.0079,0,-0.0641,-0.0659,-0.0635,-0.0628,-0.0631,-0.0581,-0.0554,-0.0509,-0.047,-0.0438,-0.0363,-0.0328,-0.0272,-0.0259,-0.0205,-0.0156,-0.0112,-0.014,-0.0069,-0.0066,0.0007,0.0032,0.008,0.0128,-0.0074,-0.0073,-0.0072,0,-0.0676,-0.0681,-0.0692,-0.0666,-0.0663,-0.0649,-0.0607,-0.0577,-0.0508,-0.0482,-0.0417,-0.0373,-0.0294,-0.0267,-0.0153,-0.0181,-0.0121,-0.008,-0.0077,0.0028,0.0029,0.0106,0.0146,0.0285,-0.0063,-0.0064,-0.0064,0,-0.0729,-0.0716,-0.0731,-0.0721,-0.0689,-0.0677,-0.0653,-0.0593,-0.0582,-0.0513,-0.0515,-0.0406,-0.0381,-0.028,-0.0167,-0.0173,-0.0059,-0.006,0.0076,0.008,0.0155,0.0166,0.0345,0.0029,0.0029,0.0029,0.0029,0,-0.0768,-0.0775,-0.0761,-0.0768,-0.0783,-0.0733,-0.0738,-0.0694,-0.0654,-0.0661,-0.055,-0.0546,-0.0387,-0.03,-0.0188,-0.0028,-0.0069,0.0095,0.0111,0.0139,0.0147,0.03,0.0341,0.003,0.003,0.003,0.0029,0,-0.0825,-0.0816,-0.0833,-0.0813,-0.0813,-0.0825,-0.0813,-0.0823,-0.0766,-0.0777,-0.0766,-0.0659,-0.0526,-0.0348,-0.0189,-0.0063,0.0177,0.0149,0.0172,0.0194,0.0465,0.05,0.0686,0.076,0.0301,0.0304,0.0306,0,-0.0858,-0.0876,-0.0884,-0.0914,-0.091,-0.0922,-0.0944,-0.089,-0.0906,-0.0859,-0.0884,-0.0747,-0.0641,-0.0344,-0.0076,0.0179,0.0272,0.0356,0.0383,0.0518,0.0566,0.058,0.0628,0.0441,0.0444,0.0446,0.0448,0,-0.0915,-0.092,-0.0941,-0.1007,-0.1043,-0.1079,-0.11,-0.113,-0.1084,-0.1073,-0.1043,-0.0945,-0.0603,-0.0267,0.0115,0.0261,0.0473,0.0417,0.0551,0.0709,0.0739,0.0804,0.0357,0.0471,0.0468,0.0467,0.0466,0.0465,-0.0959,-0.0999,-0.1041,-0.1109,-0.1163,-0.1237,-0.1279,-0.1286,-0.1307,-0.124,-0.1147,-0.0908,-0.0404,0.0161,0.0322,0.073,0.067,0.0846,0.0876,0.0876,0.0975,0.0588,0.073,0.0729,0.0728,0.0728,0.0727,0,-0.1016,-0.1073,-0.1144,-0.1236,-0.1335,-0.1322,-0.139,-0.1413,-0.1443,-0.1237,-0.1117,-0.0513,-0.0031,0.0427,0.0985,0.1179,0.1189,0.1263,0.1287,0.1313,0.0974,0.1012,0.1228,0.1228,0.1228,0.1228,0.1228,0.1227,-0.1054,-0.1143,-0.1192,-0.1376,-0.1446,-0.1552,-0.1595,-0.1587,-0.1445,-0.1087,-0.0681,-0.0351,0.0277,0.107,0.1534,0.1568,0.169,0.1684,0.1742,0.1506,0.1468,0.1432,0.1481,0.1792,0.1793,0.2072,0.2075,0.2077]}],[{"header":{"parameterUnit":"m.s-1","parameterCategory":2,"la1":30.2991,"la2":30.254,"lo1":-89.0895,"lo2":-89.0444,"dy":0.0017,"dx":0.0017,"nx":28,"ny":28,"refTime":"2024-12-15T03:00:00:Z","depth":"2","parameterNumber":2,"parameterNumberName":"U-component_of_CURRENTS"},"data":[0,0,0,0,0,0,0,0,0,0,0,0,0,0,0,0,0,0,0,0,0,0,0,0,0,0,0,0,0,0,0,0,0,0,0,0,0,0,0,0,0,0,0,0,0,0,0,0,0,0,0,0,0,0,0,0,0,0,-0.1506,-0.1506,0,-0.145,-0.1448,-0.1447,-0.1395,-0.1395,-0.1396,-0.1397,-0.1556,-0.156,-0.1564,0,0,0,0,0,0,0,0,0,0,0,0,0,-0.1508,-0.1508,-0.1506,-0.1506,-0.1507,-0.145,-0.1448,-0.1446,-0.1395,-0.1395,-0.1396,-0.1397,-0.1555,-0.1559,-0.1564,0,0,0,0,0,0,0,0,0,0,0,0,0,-0.1472,-0.1508,-0.1505,-0.1485,-0.1483,-0.1451,-0.1448,-0.1446,-0.1394,-0.1395,-0.1396,-0.1397,-0.1554,-0.1559,-0.1564,-0.1579,0,0,-0.1581,-0.1584,0,0,0,0,0,0,0,0,-0.1474,-0.147,-0.1487,-0.1486,-0.1485,-0.1443,-0.1508,-0.1506,-0.1394,-0.1413,-0.1397,-0.1398,-0.1547,-0.1553,-0.1517,-0.1586,-0.1593,-0.1582,-0.1585,-0.1587,-0.1589,0,0,0,0,0,0,0,-0.1477,-0.1472,-0.1469,-0.1488,-0.1487,-0.1459,-0.1454,-0.1505,-0.1468,-0.1412,-0.1411,-0.1427,-0.1546,-0.1511,-0.1521,-0.1595,-0.1581,-0.1586,-0.159,-0.1592,-0.1683,-0.1682,0,0,0,0,0,0,-0.1514,-0.1475,-0.1471,-0.1469,-0.1498,-0.146,-0.1453,-0.1444,-0.1463,-0.1469,-0.1427,-0.1425,-0.1502,-0.1515,-0.1527,-0.1593,-0.1587,-0.1592,-0.1596,-0.1684,-0.1683,-0.1682,0,0,0,0,0,0,-0.1514,-0.1513,-0.1474,-0.1483,-0.1479,-0.1461,-0.1449,-0.1442,-0.1453,-0.1475,-0.1482,-0.1452,-0.1503,-0.152,-0.1577,-0.1598,-0.1595,-0.16,-0.1685,-0.1684,-0.1682,-0.1697,0,0,0,0,0,0,-0.1513,-0.1512,-0.1511,-0.1485,-0.148,-0.1484,-0.1449,-0.1441,-0.1466,-0.1464,-0.1499,-0.1511,-0.1505,-0.1568,-0.1582,-0.1606,-0.1604,-0.1686,-0.1684,-0.1683,-0.1698,-0.1697,-0.1695,0,0,0,0,0,-0.1513,-0.1505,-0.151,-0.151,-0.1479,-0.1487,-0.148,-0.146,-0.1467,-0.1472,-0.1479,-0.1512,-0.1567,-0.1573,-0.1589,-0.1615,-0.1687,-0.1685,-0.1683,-0.1698,-0.1697,-0.1695,0,0,0,0,0,0,-0.1499,-0.15,-0.1504,-0.1495,-0.1512,-0.1484,-0.1486,-0.1493,-0.1494,-0.1504,-0.1519,-0.153,-0.1565,-0.1594,-0.16,-0.1627,-0.1627,-0.1628,-0.1633,-0.1632,-0.1631,-0.1668,-0.1609,0,0,0,0,0,-0.1502,-0.1499,-0.151,-0.1509,-0.1522,-0.1517,-0.152,-0.152,-0.1526,-0.1527,-0.1562,-0.1576,-0.1559,-0.1605,-0.1595,-0.1659,-0.171,-0.1675,-0.1674,-0.1673,-0.1709,-0.1713,-0.1717,-0.1676,-0.1676,-0.1676,0,0,-0.15,-0.1502,-0.1501,-0.1509,-0.1511,-0.153,-0.1518,-0.1541,-0.1563,-0.1553,-0.1603,-0.1577,-0.1563,-0.1577,-0.1601,-0.1625,-0.173,-0.1671,-0.1671,-0.1708,-0.1712,-0.1716,-0.172,-0.1674,-0.1675,-0.1675,0,0,-0.1511,-0.1501,-0.1515,-0.1532,-0.1567,-0.1557,-0.1587,-0.1603,-0.1614,-0.1661,-0.1613,-0.161,-0.1662,-0.1618,-0.1606,-0.1612,-0.1694,-0.1619,-0.1691,-0.1693,-0.1698,-0.1702,-0.186,-0.1878,-0.1653,-0.1653,-0.1653,0,-0.1521,-0.1532,-0.1524,-0.1554,-0.1571,-0.1586,-0.1617,-0.1623,-0.1661,-0.1667,-0.1695,-0.1664,-0.1668,-0.1628,-0.1622,-0.1614,-0.1686,-0.1699,-0.1695,-0.17,-0.1704,-0.1864,-0.1884,-0.1653,-0.1653,-0.1653,-0.1653,0,-0.1539,-0.1569,-0.1584,-0.1616,-0.1623,-0.1659,-0.1678,-0.1697,-0.1729,-0.1736,-0.1739,-0.1716,-0.1701,-0.1687,-0.1676,-0.1683,-0.1754,-0.1666,-0.1708,-0.171,-0.1879,-0.1899,-0.1654,-0.1654,-0.1654,-0.1654,0,0,-0.1507,-0.1589,-0.1592,-0.1622,-0.1665,-0.1661,-0.1697,-0.1712,-0.1732,-0.1769,-0.1806,-0.1751,-0.175,-0.1735,-0.1702,-0.1737,-0.1851,-0.1753,-0.1753,-0.1933,-0.1997,-0.184,-0.1849,-0.1764,-0.1765,-0.1766,-0.2137,0,-0.1539,-0.162,-0.1626,-0.1674,-0.1721,-0.1716,-0.1742,-0.1748,-0.1779,-0.1824,-0.1798,-0.1808,-0.1766,-0.1771,-0.1788,-0.1812,-0.1893,-0.1769,-0.1951,-0.1961,-0.1832,-0.1858,-0.1629,-0.1917,-0.2157,-0.216,-0.2163,0,-0.1552,-0.1605,-0.1687,-0.1726,-0.1734,-0.1749,-0.1752,-0.1795,-0.1833,-0.1849,-0.1854,-0.1857,-0.1901,-0.1861,-0.1968,-0.1901,-0.1975,-0.2015,-0.2026,-0.1886,-0.1834,-0.1932,-0.1945,-0.2198,-0.2195,-0.2192,-0.219,0,-0.1546,-0.1624,-0.1689,-0.171,-0.1762,-0.1762,-0.1787,-0.1813,-0.1844,-0.1898,-0.1944,-0.1948,-0.2042,-0.2049,-0.2137,-0.2073,-0.2307,-0.2202,-0.2154,-0.2153,-0.1995,-0.1971,-0.2293,-0.2293,-0.2292,-0.2291,-0.229,0,-0.1574,-0.1609,-0.1697,-0.1726,-0.1756,-0.1795,-0.183,-0.1838,-0.1905,-0.1984,-0.1988,-0.2064,-0.2097,-0.2215,-0.2223,-0.2284,-0.237,-0.2207,-0.2203,-0.1999,-0.1971,-0.2208,-0.2193,-0.2305,-0.2302,-0.2299,-0.2297,0,-0.1562,-0.1639,-0.1698,-0.1759,-0.1775,-0.1805,-0.1858,-0.1869,-0.1964,-0.2087,-0.2117,-0.2233,-0.2372,-0.2411,-0.2528,-0.2435,-0.2455,-0.2458,-0.2294,-0.2255,-0.2317,-0.2299,-0.2452,-0.2449,-0.2446,-0.2444,-0.2442,0,-0.1576,-0.1622,-0.1709,-0.1733,-0.1762,-0.1817,-0.1832,-0.1885,-0.1944,-0.2185,-0.2256,-0.2447,-0.2491,-0.2607,-0.2498,-0.2485,-0.2538,-0.2272,-0.2009,-0.2336,-0.2319,-0.2305,-0.2291,-0.1908,-0.1902,-0.1897,-0.1893,0,-0.1558,-0.1599,-0.1638,-0.1702,-0.172,-0.1747,-0.1831,-0.1879,-0.2022,-0.2135,-0.2337,-0.2391,-0.2511,-0.234,-0.2299,-0.2238,-0.2209,-0.2161,-0.2561,-0.1822,-0.1826,-0.1808,-0.1812,-0.1848,-0.1852,-0.1856,-0.1858,-0.186,-0.1525,-0.1525,-0.1573,-0.1613,-0.1639,-0.167,-0.1681,-0.18,-0.1891,-0.2041,-0.2218,-0.22,-0.22,-0.1929,-0.1881,-0.1842,-0.1967,-0.1821,-0.1837,-0.1858,-0.1646,-0.1633,-0.1596,-0.1599,-0.1601,-0.1604,-0.1606,0,-0.1444,-0.1434,-0.1464,-0.1478,-0.1451,-0.1527,-0.1628,-0.1639,-0.174,-0.1825,-0.1888,-0.1657,-0.15,-0.1547,-0.1379,-0.132,-0.1315,-0.1285,-0.1261,-0.1305,-0.1344,-0.1104,-0.0914,-0.0912,-0.091,-0.0909,0,0,-0.1383,-0.137,-0.1364,-0.1277,-0.1285,-0.1244,-0.1288,-0.1384,-0.1432,-0.1405,-0.1337,-0.1301,-0.1387,-0.1087,-0.1056,-0.0964,-0.1125,-0.092,-0.1466,-0.1476,-0.1514,-0.1637,-0.1314,0,0,0,0,0]},{"header":{"parameterUnit":"m.s-1","parameterCategory":2,"la1":30.2991,"la2":30.254,"lo1":-89.0895,"lo2":-89.0444,"dy":0.0017,"dx":0.0017,"nx":28,"ny":28,"refTime":"2024-12-15T03:00:00:Z","depth":"2","parameterNumber":3,"parameterNumberName":"V-component_of_CURRENTS"},"data":[0,0,0,0,0,0,0,0,0,0,0,0,0,0,0,0,0,0,0,0,0,0,0,0,0,0,0,0,0,0,0,0,0,0,0,0,0,0,0,0,0,0,0,0,0,0,0,0,0,0,0,0,0,0,0,0,0,0,-0.032,-0.032,0,-0.0232,-0.0231,-0.023,-0.0193,-0.0193,-0.0194,-0.0194,-0.0133,-0.0131,-0.0129,0,0,0,0,0,0,0,0,0,0,0,0,0,-0.0358,-0.0358,-0.032,-0.032,-0.0319,-0.0233,-0.0231,-0.023,-0.0193,-0.0193,-0.0194,-0.0194,-0.0133,-0.0131,-0.0129,0,0,0,0,0,0,0,0,0,0,0,0,0,-0.0311,-0.0358,-0.0321,-0.0292,-0.0288,-0.0233,-0.0231,-0.0229,-0.0193,-0.0193,-0.0194,-0.0194,-0.0134,-0.0131,-0.0128,-0.0099,0,0,-0.0119,-0.0118,0,0,0,0,0,0,0,0,-0.0314,-0.031,-0.0297,-0.0294,-0.029,-0.0226,-0.0222,-0.0188,-0.0193,-0.0227,-0.0194,-0.0195,-0.0168,-0.0162,-0.014,-0.0096,-0.0093,-0.0119,-0.0117,-0.0116,-0.0115,0,0,0,0,0,0,0,-0.0318,-0.0313,-0.0283,-0.0296,-0.0292,-0.0249,-0.0244,-0.0215,-0.0194,-0.0224,-0.0221,-0.0215,-0.0166,-0.0143,-0.0139,-0.0092,-0.0119,-0.0116,-0.0115,-0.0113,-0.0049,-0.0049,0,0,0,0,0,0,-0.0338,-0.0317,-0.0286,-0.0281,-0.0306,-0.0249,-0.0243,-0.0244,-0.0193,-0.0187,-0.0215,-0.0214,-0.0148,-0.0142,-0.0137,-0.0138,-0.0116,-0.0113,-0.0111,-0.0049,-0.0049,-0.0049,0,0,0,0,0,0,-0.0339,-0.0336,-0.029,-0.0298,-0.0289,-0.0249,-0.025,-0.0242,-0.0239,-0.0187,-0.018,-0.0223,-0.0148,-0.0141,-0.0131,-0.0134,-0.0112,-0.0109,-0.0049,-0.0049,-0.0049,-0.0116,0,0,0,0,0,0,-0.0341,-0.0337,-0.0348,-0.03,-0.029,-0.0278,-0.0249,-0.024,-0.0235,-0.0233,-0.0191,-0.0184,-0.0148,-0.0136,-0.0129,-0.013,-0.0107,-0.0049,-0.0049,-0.0049,-0.0114,-0.0118,-0.0122,0,0,0,0,0,-0.0342,-0.0359,-0.0349,-0.0346,-0.0306,-0.0279,-0.027,-0.024,-0.0235,-0.0239,-0.0213,-0.0187,-0.0131,-0.0134,-0.0125,-0.0125,-0.0049,-0.0049,-0.0049,-0.0112,-0.0117,-0.0122,0,0,0,0,0,0,-0.038,-0.0355,-0.0344,-0.0352,-0.0327,-0.0274,-0.0276,-0.0255,-0.0235,-0.024,-0.0193,-0.0184,-0.0174,-0.0143,-0.0147,-0.0106,-0.0083,-0.0082,-0.0134,-0.0139,-0.0143,-0.0141,-0.0104,0,0,0,0,0,-0.0394,-0.0404,-0.0367,-0.0376,-0.0369,-0.0327,-0.0314,-0.0295,-0.0268,-0.026,-0.0231,-0.0197,-0.0161,-0.0149,-0.0116,-0.01,-0.006,-0.0091,-0.0096,-0.01,-0.0091,-0.0042,-0.0042,-0.005,-0.005,-0.005,0,0,-0.0412,-0.04,-0.0405,-0.0385,-0.0364,-0.0354,-0.0321,-0.0315,-0.0301,-0.0257,-0.0245,-0.0217,-0.0162,-0.014,-0.0132,-0.0119,-0.0078,-0.01,-0.0104,-0.0092,-0.0042,-0.0042,-0.0041,-0.005,-0.005,-0.005,0,0,-0.045,-0.0444,-0.0462,-0.0443,-0.0421,-0.0391,-0.0399,-0.0361,-0.0343,-0.0324,-0.0287,-0.0264,-0.0216,-0.0174,-0.0144,-0.0153,-0.0106,-0.0146,-0.0164,-0.0118,-0.0117,-0.0115,-0.0075,-0.0069,-0.0146,-0.0146,-0.0146,0,-0.0472,-0.0484,-0.0463,-0.0466,-0.045,-0.0416,-0.0418,-0.0389,-0.0354,-0.0334,-0.0334,-0.0253,-0.0223,-0.0172,-0.0177,-0.0162,-0.0132,-0.0152,-0.0124,-0.0122,-0.0119,-0.0078,-0.0071,-0.015,-0.0149,-0.0149,-0.0149,0,-0.0511,-0.0518,-0.0527,-0.0518,-0.0501,-0.05,-0.0456,-0.0444,-0.0421,-0.0382,-0.0343,-0.0297,-0.0244,-0.0234,-0.0207,-0.0171,-0.0155,-0.014,-0.0114,-0.0122,-0.0078,-0.007,-0.0154,-0.0153,-0.0152,-0.0151,0,0,-0.0555,-0.0556,-0.0557,-0.0559,-0.0526,-0.0517,-0.0495,-0.0454,-0.0434,-0.0399,-0.0364,-0.031,-0.0286,-0.025,-0.0217,-0.018,-0.0147,-0.016,-0.0156,-0.0126,-0.0049,0.0008,0.0023,-0.0132,-0.0131,-0.0129,-0.0031,0,-0.0588,-0.0616,-0.0593,-0.0604,-0.0612,-0.0561,-0.0536,-0.0494,-0.0452,-0.0414,-0.0352,-0.0315,-0.0289,-0.0275,-0.0232,-0.0167,-0.0125,-0.0175,-0.004,-0.0036,0.0012,0.0035,0.0014,0.0104,-0.0022,-0.0021,-0.0019,0,-0.0626,-0.0637,-0.0661,-0.0645,-0.0641,-0.0631,-0.0582,-0.0557,-0.0482,-0.0449,-0.0395,-0.0346,-0.0284,-0.0269,-0.0149,-0.0184,-0.012,-0.0071,-0.0065,0.0022,0.0039,0.0096,0.0125,-0.0004,-0.0006,-0.0007,-0.0008,0,-0.0673,-0.068,-0.0703,-0.0696,-0.067,-0.0658,-0.0638,-0.0571,-0.0551,-0.0477,-0.0463,-0.0363,-0.0338,-0.0231,-0.0124,-0.0139,0.001,0.0007,0.0125,0.0129,0.0159,0.0164,0.01,0.01,0.0099,0.0099,0.0099,0,-0.0713,-0.073,-0.073,-0.0738,-0.0751,-0.0709,-0.0703,-0.0659,-0.0604,-0.06,-0.0496,-0.0478,-0.0333,-0.0231,-0.012,0.0039,0.0021,0.0138,0.0167,0.0134,0.0136,0.008,0.0077,0.0103,0.0102,0.0101,0.0101,0,-0.0768,-0.0767,-0.0793,-0.078,-0.0779,-0.079,-0.077,-0.0764,-0.0702,-0.0695,-0.0681,-0.0566,-0.0425,-0.0249,-0.0076,0.003,0.0186,0.0245,0.0198,0.0222,0.027,0.0262,0.0389,0.0392,0.0395,0.0397,0.0399,0,-0.0798,-0.0823,-0.0839,-0.0865,-0.0864,-0.0875,-0.0882,-0.0824,-0.0823,-0.0763,-0.0769,-0.0627,-0.0507,-0.0194,0.0021,0.0275,0.0258,0.0387,0.0369,0.0289,0.0304,0.0292,0.028,0.0371,0.0372,0.0374,0.0374,0,-0.085,-0.0859,-0.0884,-0.094,-0.0964,-0.0995,-0.1003,-0.1012,-0.096,-0.0931,-0.0868,-0.0755,-0.0449,-0.0164,0.0177,0.0309,0.0355,0.0421,0.0362,0.0305,0.0282,0.0293,0.0281,0.0385,0.0384,0.0383,0.0383,0.0382,-0.0887,-0.0926,-0.0961,-0.1014,-0.1058,-0.1107,-0.1136,-0.1138,-0.1128,-0.1046,-0.0922,-0.0693,-0.0428,0.0089,0.0287,0.047,0.0461,0.0514,0.0506,0.0497,0.0482,0.0465,0.0599,0.0599,0.06,0.06,0.06,0,-0.0922,-0.0973,-0.1033,-0.1093,-0.1151,-0.1166,-0.1212,-0.1226,-0.1235,-0.1044,-0.0899,-0.0531,-0.0176,0.0103,0.04,0.0575,0.0534,0.0604,0.0512,0.0503,0.0494,0.0473,0.0591,0.0591,0.0591,0.0592,0,0,-0.0949,-0.1025,-0.1059,-0.116,-0.121,-0.1302,-0.134,-0.1356,-0.1239,-0.1031,-0.0788,-0.0442,-0.0113,0.0104,0.0313,0.0457,0.0428,0.0468,0.0461,0.0318,0.0306,0.0434,0.0392,0,0,0,0,0]}],[{"header":{"parameterUnit":"m.s-1","parameterCategory":2,"la1":30.2991,"la2":30.254,"lo1":-89.0895,"lo2":-89.0444,"dy":0.0017,"dx":0.0017,"nx":28,"ny":28,"refTime":"2024-12-15T03:00:00:Z","depth":"4","parameterNumber":2,"parameterNumberName":"U-component_of_CURRENTS"},"data":[0,0,0,0,0,0,0,0,0,0,0,0,0,0,0,0,0,0,0,0,0,0,0,0,0,0,0,0,0,0,0,0,0,0,0,0,0,0,0,0,0,0,0,0,0,0,0,0,0,0,0,0,0,0,0,0,0,0,-0.0739,-0.0739,0,-0.0757,-0.0757,-0.0757,-0.0774,-0.0774,-0.0775,-0.0775,-0.078,-0.078,-0.078,0,0,0,0,0,0,0,0,0,0,0,0,0,-0.0681,-0.0682,-0.0739,-0.0739,-0.0739,-0.0757,-0.0757,-0.0757,-0.0774,-0.0774,-0.0775,-0.0775,-0.078,-0.078,-0.078,0,0,0,0,0,0,0,0,0,0,0,0,0,-0.0702,-0.0682,-0.0739,-0.0751,-0.0752,-0.0757,-0.0757,-0.0757,-0.0774,-0.0774,-0.0775,-0.0775,-0.078,-0.078,-0.078,-0.0769,0,0,-0.0779,-0.0779,0,0,0,0,0,0,0,0,-0.0701,-0.0704,-0.0749,-0.075,-0.0751,-0.0765,-0.0738,-0.0761,-0.0774,-0.0764,-0.0775,-0.0775,-0.0774,-0.0774,-0.0775,-0.0769,-0.0769,-0.0779,-0.0779,-0.0779,-0.0778,0,0,0,0,0,0,0,-0.0699,-0.0703,-0.0745,-0.0749,-0.0751,-0.0742,-0.0746,-0.0743,-0.0765,-0.0765,-0.0767,-0.077,-0.0775,-0.0775,-0.0775,-0.0769,-0.0779,-0.0779,-0.0778,-0.0778,-0.0782,-0.0782,0,0,0,0,0,0,-0.0701,-0.0702,-0.0744,-0.0745,-0.0728,-0.0743,-0.0747,-0.0759,-0.0765,-0.0767,-0.077,-0.0771,-0.0776,-0.0776,-0.0776,-0.0796,-0.0779,-0.0778,-0.0778,-0.0782,-0.0782,-0.0782,0,0,0,0,0,0,-0.07,-0.0705,-0.0743,-0.0724,-0.0729,-0.0744,-0.0757,-0.0759,-0.0771,-0.077,-0.0771,-0.0781,-0.0776,-0.0776,-0.0781,-0.0795,-0.0778,-0.0778,-0.0781,-0.0782,-0.0782,-0.0816,0,0,0,0,0,0,-0.0698,-0.0705,-0.0718,-0.0725,-0.073,-0.0752,-0.0756,-0.0759,-0.0772,-0.0774,-0.0779,-0.0779,-0.0776,-0.0781,-0.078,-0.0795,-0.0778,-0.0781,-0.0782,-0.0782,-0.0815,-0.0817,-0.082,0,0,0,0,0,-0.0696,-0.0711,-0.0719,-0.0724,-0.0747,-0.0752,-0.0754,-0.0765,-0.0772,-0.0777,-0.0781,-0.078,-0.0784,-0.0781,-0.078,-0.0795,-0.0781,-0.0781,-0.0782,-0.0813,-0.0817,-0.082,0,0,0,0,0,0,-0.0691,-0.0715,-0.0723,-0.0744,-0.0751,-0.0756,-0.0765,-0.077,-0.0777,-0.0781,-0.0781,-0.0781,-0.0789,-0.0785,-0.0782,-0.0796,-0.0783,-0.0783,-0.0807,-0.081,-0.0812,-0.0819,-0.0778,0,0,0,0,0,-0.0696,-0.0717,-0.0729,-0.0746,-0.0751,-0.0759,-0.0765,-0.077,-0.0776,-0.078,-0.0783,-0.0786,-0.0788,-0.0794,-0.0789,-0.0799,-0.081,-0.0807,-0.081,-0.0812,-0.0817,-0.0846,-0.0853,-0.0784,-0.0784,-0.0784,0,0,-0.07,-0.0715,-0.0727,-0.0746,-0.0754,-0.0759,-0.0764,-0.0774,-0.0782,-0.0778,-0.0792,-0.0791,-0.079,-0.0799,-0.0803,-0.0801,-0.0839,-0.0813,-0.0815,-0.0818,-0.0848,-0.0855,-0.0861,-0.0784,-0.0784,-0.0784,0,0,-0.0703,-0.0729,-0.0741,-0.0748,-0.076,-0.0766,-0.0771,-0.0779,-0.079,-0.0797,-0.0799,-0.0809,-0.081,-0.0817,-0.0819,-0.0833,-0.0846,-0.0834,-0.0862,-0.0891,-0.0897,-0.0903,-0.0935,-0.0943,-0.0843,-0.0843,-0.0843,0,-0.0704,-0.0721,-0.0742,-0.0748,-0.0756,-0.077,-0.0773,-0.0785,-0.0794,-0.081,-0.0804,-0.0824,-0.0818,-0.0843,-0.0848,-0.084,-0.0863,-0.0852,-0.0896,-0.0902,-0.0907,-0.0938,-0.0947,-0.0845,-0.0845,-0.0844,-0.0844,0,-0.071,-0.0723,-0.0728,-0.0746,-0.0758,-0.0762,-0.078,-0.0797,-0.081,-0.0825,-0.0851,-0.0848,-0.0869,-0.0865,-0.086,-0.0898,-0.0904,-0.0892,-0.0892,-0.0917,-0.0947,-0.0956,-0.0847,-0.0847,-0.0846,-0.0846,0,0,-0.0703,-0.0728,-0.0729,-0.0732,-0.0756,-0.0762,-0.0789,-0.0816,-0.0851,-0.0857,-0.0899,-0.0896,-0.0915,-0.0918,-0.092,-0.094,-0.0991,-0.0938,-0.0939,-0.0976,-0.1069,-0.1018,-0.1023,-0.0996,-0.0998,-0.0999,-0.1079,0,-0.0695,-0.07,-0.0723,-0.0729,-0.0729,-0.0762,-0.0793,-0.0826,-0.0862,-0.0908,-0.0921,-0.0961,-0.0932,-0.096,-0.0971,-0.0991,-0.1014,-0.0971,-0.1034,-0.1035,-0.0993,-0.103,-0.1003,-0.1086,-0.1088,-0.1089,-0.109,0,-0.0683,-0.0688,-0.069,-0.0722,-0.073,-0.0744,-0.0807,-0.0839,-0.0914,-0.0953,-0.0998,-0.1026,-0.1067,-0.1035,-0.1083,-0.1063,-0.1069,-0.1073,-0.1076,-0.1022,-0.1,-0.1053,-0.1105,-0.1104,-0.1103,-0.1102,-0.1101,0,-0.0644,-0.0664,-0.0664,-0.067,-0.0712,-0.0732,-0.0768,-0.0847,-0.0896,-0.0996,-0.1047,-0.1102,-0.1141,-0.1155,-0.1155,-0.1142,-0.1197,-0.1181,-0.1139,-0.1136,-0.1143,-0.1136,-0.1211,-0.1211,-0.1211,-0.121,-0.121,0,-0.0611,-0.061,-0.0645,-0.0637,-0.0659,-0.071,-0.0761,-0.0821,-0.0924,-0.0979,-0.1067,-0.1113,-0.1174,-0.1207,-0.1195,-0.1192,-0.1234,-0.1154,-0.1155,-0.1155,-0.1149,-0.115,-0.1142,-0.1213,-0.1213,-0.1212,-0.1212,0,-0.0553,-0.0577,-0.0576,-0.0617,-0.063,-0.0648,-0.0737,-0.0784,-0.0902,-0.0978,-0.1019,-0.1148,-0.1203,-0.1237,-0.1279,-0.1246,-0.1246,-0.1227,-0.1237,-0.1236,-0.1163,-0.1156,-0.1221,-0.1219,-0.1219,-0.1218,-0.1217,0,-0.0524,-0.0509,-0.0541,-0.0547,-0.0559,-0.06,-0.0629,-0.0748,-0.0797,-0.0969,-0.0985,-0.1114,-0.117,-0.1202,-0.1241,-0.1258,-0.1227,-0.1247,-0.1192,-0.1171,-0.1166,-0.116,-0.1154,-0.1216,-0.1215,-0.1215,-0.1215,0,-0.0452,-0.0464,-0.0471,-0.0479,-0.0496,-0.0521,-0.0566,-0.0605,-0.0742,-0.0853,-0.0957,-0.1041,-0.1107,-0.1166,-0.1197,-0.1187,-0.1252,-0.1237,-0.1238,-0.1187,-0.1165,-0.116,-0.1155,-0.1212,-0.1212,-0.1213,-0.1213,0,-0.0402,-0.0395,-0.0403,-0.0416,-0.0435,-0.0437,-0.0473,-0.0536,-0.0612,-0.0804,-0.0824,-0.096,-0.1073,-0.1127,-0.1134,-0.1154,-0.1144,-0.1123,-0.113,-0.1134,-0.1069,-0.1027,-0.1043,0,0,0,0,0,-0.0339,-0.033,-0.0339,-0.0333,-0.0352,-0.0363,-0.0432,-0.0481,-0.06,-0.065,-0.0751,-0.0811,-0.0923,-0.0998,-0.1001,-0.1084,-0.1125,-0.1086,-0.1096,-0.1194,-0.1198,-0.1129,0,0,0,0,0,0,-0.0301,-0.0292,-0.0315,-0.027,-0.0255,-0.0255,-0.0306,-0.0382,-0.0423,-0.0566,-0.0622,-0.0757,-0.0853,-0.0889,-0.0975,-0.0998,-0.0994,-0.1174,-0.1173,-0.1192,-0.1195,-0.1198,-0.1129,0,0,0,0,0]},{"header":{"parameterUnit":"m.s-1","parameterCategory":2,"la1":30.2991,"la2":30.254,"lo1":-89.0895,"lo2":-89.0444,"dy":0.0017,"dx":0.0017,"nx":28,"ny":28,"refTime":"2024-12-15T03:00:00:Z","depth":"4","parameterNumber":3,"parameterNumberName":"V-component_of_CURRENTS"},"data":[0,0,0,0,0,0,0,0,0,0,0,0,0,0,0,0,0,0,0,0,0,0,0,0,0,0,0,0,0,0,0,0,0,0,0,0,0,0,0,0,0,0,0,0,0,0,0,0,0,0,0,0,0,0,0,0,0,0,0.0183,0.0184,0,0.0234,0.0234,0.0235,0.0245,0.0245,0.0245,0.0244,0.027,0.0271,0.0272,0,0,0,0,0,0,0,0,0,0,0,0,0,0.01,0.0102,0.0183,0.0184,0.0184,0.0234,0.0234,0.0235,0.0245,0.0245,0.0244,0.0244,0.027,0.0271,0.0273,0,0,0,0,0,0,0,0,0,0,0,0,0,0.0142,0.0102,0.0183,0.0196,0.0198,0.0234,0.0235,0.0235,0.0245,0.0245,0.0244,0.0244,0.027,0.0271,0.0273,0.0292,0,0,0.0277,0.0278,0,0,0,0,0,0,0,0,0.0139,0.0145,0.0193,0.0195,0.0197,0.0233,0.0215,0.0253,0.0245,0.0227,0.0244,0.0244,0.0256,0.0259,0.0269,0.0294,0.0295,0.0278,0.0278,0.0279,0.028,0,0,0,0,0,0,0,0.0136,0.0143,0.0203,0.0194,0.0196,0.0201,0.0206,0.0222,0.0243,0.0228,0.0229,0.0236,0.0257,0.0268,0.027,0.0295,0.0277,0.0279,0.028,0.028,0.0335,0.0336,0,0,0,0,0,0,0.0132,0.014,0.0201,0.0204,0.0167,0.0203,0.0209,0.0222,0.0243,0.0247,0.0236,0.0236,0.0266,0.0268,0.0271,0.0284,0.0279,0.0281,0.0281,0.0335,0.0335,0.0336,0,0,0,0,0,0,0.013,0.0137,0.0199,0.0173,0.0181,0.0205,0.0219,0.0223,0.0235,0.025,0.0252,0.0244,0.0265,0.0269,0.0284,0.0285,0.0281,0.0283,0.0334,0.0335,0.0336,0.0317,0,0,0,0,0,0,0.0128,0.0136,0.0146,0.0173,0.0183,0.022,0.022,0.0224,0.024,0.024,0.0258,0.026,0.0265,0.0282,0.0286,0.0287,0.0284,0.0333,0.0334,0.0335,0.0317,0.0317,0.0317,0,0,0,0,0,0.0124,0.0142,0.0146,0.0154,0.0195,0.022,0.0225,0.0239,0.0241,0.0248,0.0257,0.0259,0.0291,0.0283,0.0288,0.029,0.0333,0.0334,0.0335,0.0317,0.0317,0.0317,0,0,0,0,0,0,0.0113,0.0145,0.0151,0.0177,0.0195,0.0222,0.0233,0.0242,0.0257,0.0256,0.0266,0.0269,0.0282,0.0294,0.0285,0.031,0.0312,0.0314,0.0297,0.0297,0.0297,0.0279,0.0285,0,0,0,0,0,0.0115,0.0135,0.0161,0.0182,0.019,0.0211,0.0224,0.0232,0.0249,0.0256,0.0267,0.0281,0.0292,0.03,0.0312,0.0329,0.0345,0.0334,0.0334,0.0334,0.0324,0.0352,0.0354,0.034,0.034,0.034,0,0,0.0116,0.0137,0.0148,0.018,0.0195,0.0197,0.0218,0.0236,0.0234,0.0256,0.026,0.0281,0.0297,0.031,0.0317,0.0319,0.035,0.0336,0.0335,0.0324,0.0354,0.0355,0.0356,0.0341,0.034,0.034,0,0,0.0118,0.0145,0.0155,0.0164,0.0186,0.0197,0.0201,0.0226,0.0234,0.0247,0.0259,0.028,0.0301,0.0312,0.0319,0.0331,0.0348,0.0339,0.0325,0.0354,0.0355,0.0356,0.039,0.0394,0.0341,0.0341,0.0341,0,0.0114,0.0127,0.0161,0.0162,0.0159,0.0192,0.0181,0.02,0.0225,0.023,0.0243,0.0279,0.0298,0.0307,0.0313,0.0328,0.0351,0.0321,0.0352,0.0354,0.0355,0.039,0.0395,0.034,0.034,0.034,0.034,0,0.0115,0.0116,0.0122,0.0127,0.0132,0.0134,0.0151,0.0163,0.018,0.0198,0.022,0.0255,0.0275,0.0291,0.0305,0.0325,0.034,0.0347,0.0348,0.0355,0.0392,0.0397,0.0339,0.0339,0.0339,0.034,0,0,0.012,0.0119,0.0118,0.0097,0.0107,0.0108,0.0108,0.0117,0.0119,0.0158,0.0162,0.0202,0.0236,0.0247,0.0277,0.0305,0.0347,0.0331,0.0332,0.0356,0.0417,0.0365,0.0366,0.036,0.0361,0.0361,0.0443,0,0.01,0.0081,0.0088,0.0052,0.0035,0.0048,0.004,0.0055,0.0086,0.0107,0.0154,0.0181,0.0215,0.0236,0.0268,0.0326,0.0358,0.0324,0.0412,0.0415,0.0361,0.0369,0.0363,0.0447,0.0448,0.0449,0.0449,0,0.0092,0.0074,0.0038,-0.0005,-0.0011,-0.0025,-0.0034,-0.0032,0.001,0.0036,0.0079,0.013,0.0184,0.0213,0.0309,0.0288,0.0347,0.0393,0.0397,0.0354,0.0372,0.0437,0.0459,0.0458,0.0458,0.0457,0.0456,0,0.007,0.0034,-0.0002,-0.0015,-0.0046,-0.0064,-0.0075,-0.005,-0.0052,0.0007,0.0023,0.0097,0.014,0.0218,0.0319,0.0324,0.0418,0.044,0.0447,0.0446,0.0476,0.0474,0.0499,0.0499,0.0499,0.0498,0.0498,0,0.0042,0.0013,-0.0017,-0.004,-0.0089,-0.0097,-0.0127,-0.0114,-0.0099,-0.0097,-0.001,0.0016,0.0145,0.0219,0.0306,0.0385,0.0414,0.0439,0.0456,0.047,0.0466,0.0481,0.0478,0.0501,0.0501,0.05,0.05,0,0.0027,0.0011,-0.0036,-0.0083,-0.0099,-0.0129,-0.0173,-0.019,-0.0162,-0.0154,-0.0135,-0.0034,0.0067,0.0177,0.0314,0.0363,0.0449,0.0467,0.0471,0.0489,0.0467,0.0462,0.0496,0.0495,0.0494,0.0493,0.0492,0,0.0019,-0.0006,-0.0064,-0.0091,-0.0114,-0.0161,-0.02,-0.0214,-0.0226,-0.0184,-0.0182,-0.0081,-0.0006,0.0145,0.0264,0.0409,0.0422,0.0471,0.0469,0.045,0.0464,0.0461,0.0458,0.0491,0.049,0.049,0.049,0,-0.0005,-0.0019,-0.0059,-0.0108,-0.0156,-0.0227,-0.0272,-0.0289,-0.0296,-0.0277,-0.0215,-0.0118,-0.0017,0.0128,0.0226,0.0333,0.0443,0.0461,0.0464,0.0463,0.0444,0.0458,0.0456,0.0486,0.0486,0.0487,0.0487,0,-0.0011,-0.0042,-0.0082,-0.0125,-0.0182,-0.0254,-0.0295,-0.0319,-0.0338,-0.029,-0.0266,-0.0142,-0.0055,0.0088,0.0183,0.0271,0.0304,0.034,0.0351,0.0356,0.028,0.0233,0.022,0,0,0,0,0,-0.001,-0.0044,-0.0095,-0.0147,-0.0202,-0.0244,-0.0322,-0.0357,-0.0361,-0.0332,-0.0302,-0.0206,-0.0051,0.0034,0.0112,0.0163,0.0315,0.0257,0.0361,0.0465,0.0469,0.0397,0,0,0,0,0,0,-0.0012,-0.0055,-0.0092,-0.0147,-0.0181,-0.0266,-0.0323,-0.0348,-0.0331,-0.0305,-0.0222,-0.0176,-0.0023,-0.0081,0.0127,0.0155,0.0229,0.0335,0.0336,0.0462,0.0466,0.047,0.0398,0,0,0,0,0]}]]